Regional Weather Roundup
Issued by NWS Charleston, WV

Current Version | Previous Version | Text Only | Print | Product List | Glossary On
Versions: 1 2 3 4 5 6 7 8 9 10 11 12 13 14 15 16 17 18 19 20 21 22 23 24 25 26 27 28 29 30 31 32 33 34 35 36 37 38 39 40 41 42 43 44 45 46 47 48 49 50
000
ASUS41 KRLX 270810
RWRRLX
West Virginia Regional Weather Roundup
National Weather Service Charleston WV
400 AM EDT FRI APR 27 2018

Note: "fair" indicates few or no clouds below 12,000 feet with no
significant weather and/or obstructions to visibility.

WVZ003-270900-
Northern Panhandle of West Virginia

CITY           SKY/WX    TMP DP  RH WIND       PRES   REMARKS
WHEELING       FAIR      48  36  63 CALM      29.78F
$$

WVZ009-270900-
Northwest West Virginia

CITY           SKY/WX    TMP DP  RH WIND       PRES   REMARKS
PARKERSBURG    FAIR      46  42  86 CALM      29.80S
$$

WVZ006-270900-
Western West Virginia

CITY           SKY/WX    TMP DP  RH WIND       PRES   REMARKS
HUNTINGTON     CLOUDY    54  45  71 W5        29.79R
$$

WVZ015-270900-
West Central West Virginia

CITY           SKY/WX    TMP DP  RH WIND       PRES   REMARKS
CHARLESTON     LGT RAIN  52  49  89 CALM      29.77S
$$

WVZ022-031-270900-
North Central West Virginia

CITY           SKY/WX    TMP DP  RH WIND       PRES   REMARKS
CLARKSBURG     CLOUDY    52  41  66 N6        29.77S
MORGANTOWN     CLOUDY    51  40  65 N3        29.79F
$$

WVZ025-035-042-045-270900-
Southern West Virginia

CITY           SKY/WX    TMP DP  RH WIND       PRES   REMARKS
BECKLEY        CLOUDY    48  43  82 NW5       29.77F
LOGAN          CLOUDY    50  50 100 CALM      29.78S FOG
BLUEFIELD      CLOUDY    46  44  93 W6        29.78S
LEWISBURG      RAIN      49  48  97 CALM      29.77S
$$

WVZ047-270900-
Northern Mountains of West Virginia

CITY           SKY/WX    TMP DP  RH WIND       PRES   REMARKS
ELKINS         LGT RAIN  48  44  86 CALM      29.78F
$$

WVZ052-270900-
Eastern Panhandle of West Virginia

CITY           SKY/WX    TMP DP  RH WIND       PRES   REMARKS
MARTINSBURG    LGT RAIN  51  47  86 S6        29.81R
PETERSBURG     CLOUDY    50  45  82 CALM      29.81R HAZE
$$



USA.gov is the U.S. government's official web portal to all federal, state and local government web resources and services.